EST,Max TemperatureF,Mean TemperatureF,Min TemperatureF,Max Dew PointF,MeanDew PointF,Min DewpointF,Max Humidity, Mean Humidity, Min Humidity, Max Sea Level PressureIn, Mean Sea Level PressureIn, Min Sea Level PressureIn, Max VisibilityMiles, Mean VisibilityMiles, Min VisibilityMiles, Max Wind SpeedMPH, Mean Wind SpeedMPH, Max Gust SpeedMPH,PrecipitationIn, CloudCover, Events, WindDirDegrees
2012-12-1,33,32,30,31,26,17,96,80,52,30.60,30.53,30.48,10,7,2,9,7,,0.00,8,Snow,16
2012-12-2,48,40,32,46,38,30,100,93,77,30.46,30.27,30.09,7,3,0,9,3,,0.07,6,Fog-Rain,157
2012-12-3,59,46,32,46,40,30,100,88,51,30.30,30.18,30.07,10,4,0,13,3,18,0.00,2,Fog,235
2012-12-4,57,44,30,54,41,28,100,94,87,30.31,30.23,30.00,7,4,1,13,1,21,0.02,6,Rain,185
2012-12-5,55,45,34,52,37,16,100,69,44,30.22,30.01,29.90,10,9,4,21,8,31,0.01,5,Rain,318
2012-12-6,42,32,21,22,17,14,85,58,32,30.36,30.30,30.22,10,10,10,12,6,20,0.00,0,,340
2012-12-7,43,32,21,42,35,18,100,90,65,30.29,30.12,30.04,10,5,1,5,1,,0.05,7,Rain,178
2012-12-8,46,44,41,45,43,39,100,96,87,30.02,29.95,29.87,10,3,0,6,1,,0.21,8,Fog-Rain,350
2012-12-9,46,42,39,45,39,33,100,88,63,30.27,30.13,29.99,10,5,0,9,2,,0.13,6,Fog-Rain,7
2012-12-10,54,46,39,54,45,37,100,97,93,30.07,29.74,29.55,8,2,0,7,3,,0.16,8,Fog-Rain,142
2012-12-11,51,42,32,52,33,24,100,69,46,30.20,29.88,29.58,10,9,0,14,9,22,0.00,6,Fog-Rain,339
2012-12-12,42,34,26,27,24,21,89,73,43,30.45,30.36,30.21,10,10,9,5,1,,0.00,0,,328
2012-12-13,46,36,24,27,24,22,92,74,39,30.49,30.41,30.32,10,9,6,4,1,,0.00,0,,333
2012-12-14,48,34,19,27,22,17,89,69,33,30.31,30.21,30.12,10,8,5,8,1,,0.00,0,,260
2012-12-15,46,36,26,28,26,23,92,73,42,30.32,30.27,30.22,10,9,4,7,1,,0.00,0,,25
2012-12-16,37,36,35,34,31,27,93,84,70,30.26,30.13,30.00,10,6,2,10,5,,0.06,8,Rain,25
2012-12-17,37,36,35,36,34,32,100,93,89,29.98,29.88,29.72,10,4,2,10,8,17,0.32,8,Rain,6
2012-12-18,48,42,37,45,40,35,100,91,71,29.72,29.52,29.45,10,7,2,15,4,22,0.83,8,Rain,341
2012-12-19,48,42,36,35,28,24,93,59,42,30.08,29.78,29.56,10,10,10,23,10,34,0.00,2,,320
2012-12-20,43,36,28,36,29,23,89,69,53,30.22,30.11,29.95,10,10,8,12,4,17,0.05,2,Rain,110
2012-12-21,57,47,37,54,43,27,94,81,60,29.88,29.28,29.07,10,7,2,29,15,51,0.93,8,Rain,151
2012-12-22,37,36,35,30,23,15,76,59,39,29.75,29.50,29.29,10,10,10,23,10,32,0.00,8,,285
2012-12-23,39,32,24,24,21,18,88,61,45,29.93,29.87,29.76,10,10,10,10,4,17,0.00,3,,235
2012-12-24,39,29,19,29,22,17,93,71,43,30.09,30.03,29.94,10,8,1,7,2,,0.04,2,Snow,326
2012-12-25,37,32,28,31,27,21,93,84,65,30.25,30.04,29.95,10,7,2,14,6,21,0.02,6,Rain-Snow,359
2012-12-26,36,30,24,32,23,14,93,75,58,30.30,30.09,29.68,10,6,0,14,8,26,0.36,4,Fog-Rain-Snow,26
2012-12-27,37,34,30,35,31,19,93,83,64,29.76,29.47,29.30,10,6,2,24,16,39,0.34,8,Rain-Snow,351
2012-12-28,37,30,23,22,19,17,88,64,50,30.07,29.95,29.76,10,10,10,22,11,29,0.00,4,,327
2012-12-29,32,26,21,29,25,18,93,86,72,30.04,29.68,29.47,10,4,0,12,4,17,0.18,7,Fog-Snow,353
2012-12-30,33,30,26,28,16,8,87,58,40,30.08,29.81,29.51,10,10,4,25,12,46,0.00,2,Snow,318
2012-12-31,36,27,18,23,16,8,74,59,47,30.14,30.02,29.84,10,10,10,8,5,,0.00,2,,197